Year,Month,Day,Hour,Minute,Value (Times are PST for temperature in C)
2018,08,20,00,00,10.00
2018,08,20,00,01,10.00
2018,08,20,00,02,10.00
2018,08,20,00,03,9.90
2018,08,20,00,04,9.90
2018,08,20,00,05,9.90
2018,08,20,00,06,9.90
2018,08,20,00,07,9.90
2018,08,20,00,08,9.90
2018,08,20,00,09,9.90
2018,08,20,00,10,9.90
2018,08,20,00,11,9.90
2018,08,20,00,12,9.90
2018,08,20,00,13,9.90
2018,08,20,00,14,9.80
2018,08,20,00,15,9.80
2018,08,20,00,16,9.80
2018,08,20,00,17,9.80
2018,08,20,00,18,9.80
2018,08,20,00,19,9.80
2018,08,20,00,20,9.80
2018,08,20,00,21,9.80
2018,08,20,00,22,9.80
2018,08,20,00,23,9.80
2018,08,20,00,24,9.80
2018,08,20,00,25,9.80
2018,08,20,00,26,9.80
2018,08,20,00,27,9.80
2018,08,20,00,28,9.80
2018,08,20,00,29,9.80
2018,08,20,00,30,9.80
2018,08,20,00,31,9.80
2018,08,20,00,32,9.80
2018,08,20,00,33,9.70
2018,08,20,00,34,9.70
2018,08,20,00,35,9.70
2018,08,20,00,36,9.70
2018,08,20,00,37,9.70
2018,08,20,00,38,9.70
2018,08,20,00,39,9.70
2018,08,20,00,40,9.70
2018,08,20,00,41,9.70
2018,08,20,00,42,9.70
2018,08,20,00,43,9.70
2018,08,20,00,44,9.70
2018,08,20,00,45,9.70
2018,08,20,00,46,9.80
2018,08,20,00,47,9.80
2018,08,20,00,48,9.80
2018,08,20,00,49,9.80
2018,08,20,00,50,9.80
2018,08,20,00,51,9.70
2018,08,20,00,52,9.70
2018,08,20,00,53,9.70
2018,08,20,00,54,9.70
2018,08,20,00,55,9.70
2018,08,20,00,56,9.70
2018,08,20,00,57,9.70
2018,08,20,00,58,9.70
2018,08,20,00,59,9.70
2018,08,20,01,00,9.70
2018,08,20,01,01,9.70
2018,08,20,01,02,9.70
2018,08,20,01,03,9.70
2018,08,20,01,04,9.70
2018,08,20,01,05,9.70
2018,08,20,01,06,9.70
2018,08,20,01,07,9.70
2018,08,20,01,08,9.70
2018,08,20,01,09,9.70
2018,08,20,01,10,9.70
2018,08,20,01,11,9.70
2018,08,20,01,12,9.70
2018,08,20,01,13,9.70
2018,08,20,01,14,9.70
2018,08,20,01,15,9.70
2018,08,20,01,16,9.80
2018,08,20,01,17,9.80
2018,08,20,01,18,9.80
2018,08,20,01,19,9.80
2018,08,20,01,20,9.80
2018,08,20,01,21,9.80
2018,08,20,01,22,9.80
2018,08,20,01,23,9.80
2018,08,20,01,24,9.80
2018,08,20,01,25,9.80
2018,08,20,01,26,9.80
2018,08,20,01,27,9.80
2018,08,20,01,28,9.80
2018,08,20,01,29,9.80
2018,08,20,01,30,9.80
2018,08,20,01,31,9.70
2018,08,20,01,32,9.80
2018,08,20,01,33,9.70
2018,08,20,01,34,9.70
2018,08,20,01,35,9.70
2018,08,20,01,36,9.70
2018,08,20,01,37,9.70
2018,08,20,01,38,9.70
2018,08,20,01,39,9.70
2018,08,20,01,40,9.70
2018,08,20,01,41,9.70
2018,08,20,01,42,9.70
2018,08,20,01,43,9.70
2018,08,20,01,44,9.70
2018,08,20,01,45,9.70
2018,08,20,01,46,9.70
2018,08,20,01,47,9.70
2018,08,20,01,48,9.70
2018,08,20,01,49,9.70
2018,08,20,01,50,9.70
2018,08,20,01,51,9.70
2018,08,20,01,52,9.70
2018,08,20,01,53,9.70
2018,08,20,01,54,9.70
2018,08,20,01,55,9.70
2018,08,20,01,56,9.70
2018,08,20,01,57,9.70
2018,08,20,01,58,9.70
2018,08,20,01,59,9.70
2018,08,20,02,00,9.70
2018,08,20,02,01,9.70
2018,08,20,02,02,9.70
2018,08,20,02,03,9.70
2018,08,20,02,04,9.70
2018,08,20,02,05,9.70
2018,08,20,02,06,9.70
2018,08,20,02,07,9.70
2018,08,20,02,08,9.70
2018,08,20,02,09,9.70
2018,08,20,02,10,9.70
2018,08,20,02,11,9.70
2018,08,20,02,12,9.70
2018,08,20,02,13,9.70
2018,08,20,02,14,9.70
2018,08,20,02,15,9.70
2018,08,20,02,16,9.70
2018,08,20,02,17,9.60
2018,08,20,02,18,9.60
2018,08,20,02,19,9.60
2018,08,20,02,20,9.60
2018,08,20,02,21,9.60
2018,08,20,02,22,9.60
2018,08,20,02,23,9.70
2018,08,20,02,24,9.70
2018,08,20,02,25,9.70
2018,08,20,02,26,9.70
2018,08,20,02,27,9.70
2018,08,20,02,28,9.70
2018,08,20,02,29,9.70
2018,08,20,02,30,9.70
2018,08,20,02,31,9.70
2018,08,20,02,32,9.60
2018,08,20,02,33,9.60
2018,08,20,02,34,9.60
2018,08,20,02,35,9.60
2018,08,20,02,36,9.60
2018,08,20,02,37,9.60
2018,08,20,02,38,9.60
2018,08,20,02,39,9.60
2018,08,20,02,40,9.60
2018,08,20,02,41,9.60
2018,08,20,02,42,9.60
2018,08,20,02,43,9.60
2018,08,20,02,44,9.60
2018,08,20,02,45,9.60
2018,08,20,02,46,9.60
2018,08,20,02,47,9.60
2018,08,20,02,48,9.60
2018,08,20,02,49,9.60
2018,08,20,02,50,9.60
2018,08,20,02,51,9.60
2018,08,20,02,52,9.60
2018,08,20,02,53,9.60
2018,08,20,02,54,9.60
2018,08,20,02,55,9.60
2018,08,20,02,56,9.60
2018,08,20,02,57,9.60
2018,08,20,02,58,9.60
2018,08,20,02,59,9.60
2018,08,20,03,00,9.60
2018,08,20,03,01,9.60
2018,08,20,03,02,9.60
2018,08,20,03,03,9.60
2018,08,20,03,04,9.60
2018,08,20,03,05,9.60
2018,08,20,03,06,9.60
2018,08,20,03,07,9.60
2018,08,20,03,08,9.60
2018,08,20,03,09,9.60
2018,08,20,03,10,9.60
2018,08,20,03,11,9.60
2018,08,20,03,12,9.60
2018,08,20,03,13,9.60
2018,08,20,03,14,9.60
2018,08,20,03,15,9.60
2018,08,20,03,16,9.60
2018,08,20,03,17,9.60
2018,08,20,03,18,9.60
2018,08,20,03,19,9.60
2018,08,20,03,20,9.60
2018,08,20,03,21,9.60
2018,08,20,03,22,9.60
2018,08,20,03,23,9.60
2018,08,20,03,24,9.60
2018,08,20,03,25,9.60
2018,08,20,03,26,9.60
2018,08,20,03,27,9.50
2018,08,20,03,28,9.50
2018,08,20,03,29,9.50
2018,08,20,03,30,9.50
2018,08,20,03,31,9.50
2018,08,20,03,32,9.40
2018,08,20,03,33,9.40
2018,08,20,03,34,9.40
2018,08,20,03,35,9.40
2018,08,20,03,36,9.40
2018,08,20,03,37,9.40
2018,08,20,03,38,9.40
2018,08,20,03,39,9.40
2018,08,20,03,40,9.40
2018,08,20,03,41,9.40
2018,08,20,03,42,9.40
2018,08,20,03,43,9.40
2018,08,20,03,44,9.40
2018,08,20,03,45,9.40
2018,08,20,03,46,9.40
2018,08,20,03,47,9.40
2018,08,20,03,48,9.40
2018,08,20,03,49,9.40
2018,08,20,03,50,9.40
2018,08,20,03,51,9.40
2018,08,20,03,52,9.40
2018,08,20,03,53,9.40
2018,08,20,03,54,9.40
2018,08,20,03,55,9.40
2018,08,20,03,56,9.40
2018,08,20,03,57,9.40
2018,08,20,03,58,9.40
2018,08,20,03,59,9.40
2018,08,20,04,00,9.40
2018,08,20,04,01,9.40
2018,08,20,04,02,9.40
2018,08,20,04,03,9.40
2018,08,20,04,04,9.40
2018,08,20,04,05,9.40
2018,08,20,04,06,9.40
2018,08,20,04,07,9.40
2018,08,20,04,08,9.40
2018,08,20,04,09,9.40
2018,08,20,04,10,9.40
2018,08,20,04,11,9.40
2018,08,20,04,12,9.40
2018,08,20,04,13,9.40
2018,08,20,04,14,9.30
2018,08,20,04,15,9.30
2018,08,20,04,16,9.30
2018,08,20,04,17,9.30
2018,08,20,04,18,9.30
2018,08,20,04,19,9.30
2018,08,20,04,20,9.30
2018,08,20,04,21,9.30
2018,08,20,04,22,9.30
2018,08,20,04,23,9.30
2018,08,20,04,24,9.30
2018,08,20,04,25,9.30
2018,08,20,04,26,9.30
2018,08,20,04,27,9.30
2018,08,20,04,28,9.30
2018,08,20,04,29,9.30
2018,08,20,04,30,9.30
2018,08,20,04,31,9.30
2018,08,20,04,32,9.30
2018,08,20,04,33,9.30
2018,08,20,04,34,9.30
2018,08,20,04,35,9.30
2018,08,20,04,36,9.20
2018,08,20,04,37,9.20
2018,08,20,04,38,9.20
2018,08,20,04,39,9.20
2018,08,20,04,40,9.20
2018,08,20,04,41,9.20
2018,08,20,04,42,9.20
2018,08,20,04,43,9.20
2018,08,20,04,44,9.20
2018,08,20,04,45,9.10
2018,08,20,04,46,9.10
2018,08,20,04,47,9.10
2018,08,20,04,48,9.10
2018,08,20,04,49,9.10
2018,08,20,04,50,9.10
2018,08,20,04,51,9.10
2018,08,20,04,52,9.10
2018,08,20,04,53,9.10
2018,08,20,04,54,9.10
2018,08,20,04,55,9.10
2018,08,20,04,56,9.10
2018,08,20,04,57,9.10
2018,08,20,04,58,9.10
2018,08,20,04,59,9.10
2018,08,20,05,00,9.10
2018,08,20,05,01,9.10
2018,08,20,05,02,9.10
2018,08,20,05,03,9.10
2018,08,20,05,04,9.10
2018,08,20,05,05,9.10
2018,08,20,05,06,9.10
2018,08,20,05,07,9.10
2018,08,20,05,08,9.10
2018,08,20,05,09,9.10
2018,08,20,05,10,9.00
2018,08,20,05,11,9.00
2018,08,20,05,12,9.00
2018,08,20,05,13,9.10
2018,08,20,05,14,9.10
2018,08,20,05,15,9.10
2018,08,20,05,16,9.10
2018,08,20,05,17,9.10
2018,08,20,05,18,9.10
2018,08,20,05,19,9.10
2018,08,20,05,20,9.20
2018,08,20,05,21,9.20
2018,08,20,05,22,9.30
2018,08,20,05,23,9.30
2018,08,20,05,24,9.30
2018,08,20,05,25,9.30
2018,08,20,05,26,9.30
2018,08,20,05,27,9.20
2018,08,20,05,28,9.20
2018,08,20,05,29,9.20
2018,08,20,05,30,9.20
2018,08,20,05,31,9.20
2018,08,20,05,32,9.20
2018,08,20,05,33,9.20
2018,08,20,05,34,9.20
2018,08,20,05,35,9.20
2018,08,20,05,36,9.30
2018,08,20,05,37,9.40
2018,08,20,05,38,9.50
2018,08,20,05,39,9.60
2018,08,20,05,40,9.60
2018,08,20,05,41,9.60
2018,08,20,05,42,9.60
2018,08,20,05,43,9.60
2018,08,20,05,44,9.60
2018,08,20,05,45,9.60
2018,08,20,05,46,9.60
2018,08,20,05,47,9.70
2018,08,20,05,48,9.70
2018,08,20,05,49,9.80
2018,08,20,05,50,9.80
2018,08,20,05,51,9.80
2018,08,20,05,52,9.80
2018,08,20,05,53,9.70
2018,08,20,05,54,9.80
2018,08,20,05,55,9.90
2018,08,20,05,56,10.00
2018,08,20,05,57,10.10
2018,08,20,05,58,10.20
2018,08,20,05,59,10.20
2018,08,20,06,00,10.10
2018,08,20,06,01,10.00
2018,08,20,06,02,9.90
2018,08,20,06,03,9.90
2018,08,20,06,04,9.90
2018,08,20,06,05,9.80
2018,08,20,06,06,9.80
2018,08,20,06,07,9.80
2018,08,20,06,08,9.80
2018,08,20,06,09,9.80
2018,08,20,06,10,9.70
2018,08,20,06,11,9.70
2018,08,20,06,12,9.70
2018,08,20,06,13,9.70
2018,08,20,06,14,9.80
2018,08,20,06,15,9.80
2018,08,20,06,16,9.90
2018,08,20,06,17,10.00
2018,08,20,06,18,10.10
2018,08,20,06,19,10.10
2018,08,20,06,20,10.20
2018,08,20,06,21,10.20
2018,08,20,06,22,10.20
2018,08,20,06,23,10.30
2018,08,20,06,24,10.30
2018,08,20,06,25,10.20
2018,08,20,06,26,10.20
2018,08,20,06,27,10.10
2018,08,20,06,28,10.10
2018,08,20,06,29,10.10
2018,08,20,06,30,10.20
2018,08,20,06,31,10.20
2018,08,20,06,32,10.30
2018,08,20,06,33,10.30
2018,08,20,06,34,10.30
2018,08,20,06,35,10.20
2018,08,20,06,36,10.20
2018,08,20,06,37,10.20
2018,08,20,06,38,10.20
2018,08,20,06,39,10.20
2018,08,20,06,40,10.20
2018,08,20,06,41,10.20
2018,08,20,06,42,10.20
2018,08,20,06,43,10.10
2018,08,20,06,44,10.10
2018,08,20,06,45,10.20
2018,08,20,06,46,10.30
2018,08,20,06,47,10.40
2018,08,20,06,48,10.30
2018,08,20,06,49,10.30
2018,08,20,06,50,10.30
2018,08,20,06,51,10.40
2018,08,20,06,52,10.40
2018,08,20,06,53,10.40
2018,08,20,06,54,10.30
2018,08,20,06,55,10.30
2018,08,20,06,56,10.30
2018,08,20,06,57,10.20
2018,08,20,06,58,10.20
2018,08,20,06,59,10.30
2018,08,20,07,00,10.40
2018,08,20,07,01,10.40
2018,08,20,07,02,10.50
2018,08,20,07,03,10.70
2018,08,20,07,04,10.70
2018,08,20,07,05,10.80
2018,08,20,07,06,10.80
2018,08,20,07,07,10.80
2018,08,20,07,08,10.80
2018,08,20,07,09,10.70
2018,08,20,07,10,10.70
2018,08,20,07,11,10.60
2018,08,20,07,12,10.60
2018,08,20,07,13,10.60
2018,08,20,07,14,10.50
2018,08,20,07,15,10.50
2018,08,20,07,16,10.50
2018,08,20,07,17,10.50
2018,08,20,07,18,10.50
2018,08,20,07,19,10.40
2018,08,20,07,20,10.40
2018,08,20,07,21,10.30
2018,08,20,07,22,10.30
2018,08,20,07,23,10.30
2018,08,20,07,24,10.30
2018,08,20,07,25,10.30
2018,08,20,07,26,10.30
2018,08,20,07,27,10.40
2018,08,20,07,28,10.50
2018,08,20,07,29,10.60
2018,08,20,07,30,10.60
2018,08,20,07,31,10.70
2018,08,20,07,32,10.60
2018,08,20,07,33,10.60
2018,08,20,07,34,10.60
2018,08,20,07,35,10.60
2018,08,20,07,36,10.70
2018,08,20,07,37,10.70
2018,08,20,07,38,10.70
2018,08,20,07,39,10.70
2018,08,20,07,40,10.70
2018,08,20,07,41,10.70
2018,08,20,07,42,10.80
2018,08,20,07,43,10.70
2018,08,20,07,44,10.70
2018,08,20,07,45,10.70
2018,08,20,07,46,10.60
2018,08,20,07,47,10.60
2018,08,20,07,48,10.60
2018,08,20,07,49,10.60
2018,08,20,07,50,10.50
2018,08,20,07,51,10.50
2018,08,20,07,52,10.50
2018,08,20,07,53,10.60
2018,08,20,07,54,10.60
2018,08,20,07,55,10.60
2018,08,20,07,56,10.60
2018,08,20,07,57,10.60
2018,08,20,07,58,10.70
2018,08,20,07,59,10.70
2018,08,20,08,00,10.70
2018,08,20,08,01,10.70
2018,08,20,08,02,10.70
2018,08,20,08,03,10.70
2018,08,20,08,04,10.70
2018,08,20,08,05,10.70
2018,08,20,08,06,10.70
2018,08,20,08,07,10.70
2018,08,20,08,08,10.70
2018,08,20,08,09,10.70
2018,08,20,08,10,10.80
2018,08,20,08,11,10.80
2018,08,20,08,12,10.80
2018,08,20,08,13,10.90
2018,08,20,08,14,10.90
2018,08,20,08,15,11.00
2018,08,20,08,16,11.10
2018,08,20,08,17,11.10
2018,08,20,08,18,11.10
2018,08,20,08,19,11.10
2018,08,20,08,20,11.10
2018,08,20,08,21,11.10
2018,08,20,08,22,11.10
2018,08,20,08,23,11.10
2018,08,20,08,24,11.10
2018,08,20,08,25,11.20
2018,08,20,08,26,11.20
2018,08,20,08,27,11.30
2018,08,20,08,28,11.30
2018,08,20,08,29,11.30
2018,08,20,08,30,11.40
2018,08,20,08,31,11.50
2018,08,20,08,32,11.50
2018,08,20,08,33,11.60
2018,08,20,08,34,11.60
2018,08,20,08,35,11.60
2018,08,20,08,36,11.70
2018,08,20,08,37,11.70
2018,08,20,08,38,11.70
2018,08,20,08,39,11.80
2018,08,20,08,40,11.80
2018,08,20,08,41,11.90
2018,08,20,08,42,11.90
2018,08,20,08,43,12.00
2018,08,20,08,44,12.00
2018,08,20,08,45,12.00
2018,08,20,08,46,12.10
2018,08,20,08,47,12.10
2018,08,20,08,48,12.10
2018,08,20,08,49,12.10
2018,08,20,08,50,12.20
2018,08,20,08,51,12.20
2018,08,20,08,52,12.20
2018,08,20,08,53,12.30
2018,08,20,08,54,12.30
2018,08,20,08,55,12.40
2018,08,20,08,56,12.40
2018,08,20,08,57,12.40
2018,08,20,08,58,12.40
2018,08,20,08,59,12.40
2018,08,20,09,00,12.50
2018,08,20,09,01,12.50
2018,08,20,09,02,12.60
2018,08,20,09,03,12.60
2018,08,20,09,04,12.70
2018,08,20,09,05,12.70
2018,08,20,09,06,12.70
2018,08,20,09,07,12.70
2018,08,20,09,08,12.80
2018,08,20,09,09,12.80
2018,08,20,09,10,12.90
2018,08,20,09,11,12.90
2018,08,20,09,12,13.00
2018,08,20,09,13,13.10
2018,08,20,09,14,13.10
2018,08,20,09,15,13.20
2018,08,20,09,16,13.20
2018,08,20,09,17,13.30
2018,08,20,09,18,13.40
2018,08,20,09,19,13.40
2018,08,20,09,20,13.50
2018,08,20,09,21,13.60
2018,08,20,09,22,13.70
2018,08,20,09,23,13.70
2018,08,20,09,24,13.80
2018,08,20,09,25,13.80
2018,08,20,09,26,13.80
2018,08,20,09,27,13.80
2018,08,20,09,28,13.80
2018,08,20,09,29,13.90
2018,08,20,09,30,13.90
2018,08,20,09,31,13.90
2018,08,20,09,32,13.90
2018,08,20,09,33,14.00
2018,08,20,09,34,14.00
2018,08,20,09,35,14.10
2018,08,20,09,36,14.10
2018,08,20,09,37,14.20
2018,08,20,09,38,14.30
2018,08,20,09,39,14.30
2018,08,20,09,40,14.40
2018,08,20,09,41,14.50
2018,08,20,09,42,14.50
2018,08,20,09,43,14.60
2018,08,20,09,44,14.60
2018,08,20,09,45,14.70
2018,08,20,09,46,14.80
2018,08,20,09,47,14.80
2018,08,20,09,48,14.90
2018,08,20,09,49,14.90
2018,08,20,09,50,14.90
2018,08,20,09,51,14.90
2018,08,20,09,52,15.00
2018,08,20,09,53,15.10
2018,08,20,09,54,15.10
2018,08,20,09,55,15.20
2018,08,20,09,56,15.30
2018,08,20,09,57,15.30
2018,08,20,09,58,15.40
2018,08,20,09,59,15.50
2018,08,20,10,00,15.50
2018,08,20,10,01,15.60
2018,08,20,10,02,15.70
2018,08,20,10,03,15.70
2018,08,20,10,04,15.80
2018,08,20,10,05,15.80
2018,08,20,10,06,15.90
2018,08,20,10,07,15.90
2018,08,20,10,08,16.00
2018,08,20,10,09,16.00
2018,08,20,10,10,16.00
2018,08,20,10,11,16.10
2018,08,20,10,12,16.20
2018,08,20,10,13,16.30
2018,08,20,10,14,16.40
2018,08,20,10,15,16.50
2018,08,20,10,16,16.60
2018,08,20,10,17,16.60
2018,08,20,10,18,16.60
2018,08,20,10,19,16.70
2018,08,20,10,20,16.70
2018,08,20,10,21,16.70
2018,08,20,10,22,16.80
2018,08,20,10,23,16.80
2018,08,20,10,24,16.80
2018,08,20,10,25,16.90
2018,08,20,10,26,16.90
2018,08,20,10,27,17.00
2018,08,20,10,28,17.10
2018,08,20,10,29,17.10
2018,08,20,10,30,17.20
2018,08,20,10,31,17.20
2018,08,20,10,32,17.30
2018,08,20,10,33,17.30
2018,08,20,10,34,17.40
2018,08,20,10,35,17.40
2018,08,20,10,36,17.40
2018,08,20,10,37,17.50
2018,08,20,10,38,17.50
2018,08,20,10,39,17.60
2018,08,20,10,40,17.60
2018,08,20,10,41,17.60
2018,08,20,10,42,17.70
2018,08,20,10,43,17.80
2018,08,20,10,44,17.80
2018,08,20,10,45,17.90
2018,08,20,10,46,17.90
2018,08,20,10,47,18.00
2018,08,20,10,48,18.10
2018,08,20,10,49,18.20
2018,08,20,10,50,18.20
2018,08,20,10,51,18.30
2018,08,20,10,52,18.30
2018,08,20,10,53,18.30
2018,08,20,10,54,18.40
2018,08,20,10,55,18.50
2018,08,20,10,56,18.50
2018,08,20,10,57,18.60
2018,08,20,10,58,18.60
2018,08,20,10,59,18.70
2018,08,20,11,00,18.80
2018,08,20,11,01,18.90
2018,08,20,11,02,18.90
2018,08,20,11,03,19.00
2018,08,20,11,04,19.00
2018,08,20,11,05,18.90
2018,08,20,11,06,18.90
2018,08,20,11,07,18.90
2018,08,20,11,08,18.80
2018,08,20,11,09,18.80
2018,08,20,11,10,18.80
2018,08,20,11,11,18.80
2018,08,20,11,12,18.90
2018,08,20,11,13,18.90
2018,08,20,11,14,18.90
2018,08,20,11,15,19.00
2018,08,20,11,16,19.10
2018,08,20,11,17,19.10
2018,08,20,11,18,19.20
2018,08,20,11,19,19.30
2018,08,20,11,20,19.40
2018,08,20,11,21,19.40
2018,08,20,11,22,19.50
2018,08,20,11,23,19.60
2018,08,20,11,24,19.70
2018,08,20,11,25,19.70
2018,08,20,11,26,19.80
2018,08,20,11,27,19.90
2018,08,20,11,28,20.00
2018,08,20,11,29,20.00
2018,08,20,11,30,20.00
2018,08,20,11,31,19.90
2018,08,20,11,32,19.70
2018,08,20,11,33,19.50
2018,08,20,11,34,19.30
2018,08,20,11,35,19.10
2018,08,20,11,36,18.90
2018,08,20,11,37,18.80
2018,08,20,11,38,18.70
2018,08,20,11,39,18.70
2018,08,20,11,40,18.60
2018,08,20,11,41,18.60
2018,08,20,11,42,18.60
2018,08,20,11,43,18.50
2018,08,20,11,44,18.50
2018,08,20,11,45,18.40
2018,08,20,11,46,18.40
2018,08,20,11,47,18.30
2018,08,20,11,48,18.30
2018,08,20,11,49,18.20
2018,08,20,11,50,18.20
2018,08,20,11,51,18.20
2018,08,20,11,52,18.10
2018,08,20,11,53,18.10
2018,08,20,11,54,18.10
2018,08,20,11,55,18.10
2018,08,20,11,56,18.10
2018,08,20,11,57,18.10
2018,08,20,11,58,18.10
2018,08,20,11,59,18.10
2018,08,20,12,00,18.10
2018,08,20,12,01,18.10
2018,08,20,12,02,18.10
2018,08,20,12,03,18.10
2018,08,20,12,04,18.00
2018,08,20,12,05,18.00
2018,08,20,12,06,17.90
2018,08,20,12,07,17.90
2018,08,20,12,08,17.90
2018,08,20,12,09,17.90
2018,08,20,12,10,17.80
2018,08,20,12,11,17.80
2018,08,20,12,12,17.80
2018,08,20,12,13,17.70
2018,08,20,12,14,17.60
2018,08,20,12,15,17.60
2018,08,20,12,16,17.50
2018,08,20,12,17,17.50
2018,08,20,12,18,17.50
2018,08,20,12,19,17.50
2018,08,20,12,20,17.40
2018,08,20,12,21,17.50
2018,08,20,12,22,17.50
2018,08,20,12,23,17.50
2018,08,20,12,24,17.60
2018,08,20,12,25,17.60
2018,08,20,12,26,17.60
2018,08,20,12,27,17.70
2018,08,20,12,28,17.80
2018,08,20,12,29,17.90
2018,08,20,12,30,18.00
2018,08,20,12,31,18.10
2018,08,20,12,32,18.20
2018,08,20,12,33,18.20
2018,08,20,12,34,18.20
2018,08,20,12,35,18.20
2018,08,20,12,36,18.10
2018,08,20,12,37,18.00
2018,08,20,12,38,17.90
2018,08,20,12,39,17.80
2018,08,20,12,40,17.70
2018,08,20,12,41,17.70
2018,08,20,12,42,17.70
2018,08,20,12,43,17.60
2018,08,20,12,44,17.60
2018,08,20,12,45,17.60
2018,08,20,12,46,17.70
2018,08,20,12,47,17.80
2018,08,20,12,48,17.80
2018,08,20,12,49,17.90
2018,08,20,12,50,18.00
2018,08,20,12,51,18.10
2018,08,20,12,52,18.20
2018,08,20,12,53,18.40
2018,08,20,12,54,18.50
2018,08,20,12,55,18.60
2018,08,20,12,56,18.70
2018,08,20,12,57,18.80
2018,08,20,12,58,18.90
2018,08,20,12,59,19.10
2018,08,20,13,00,19.20
2018,08,20,13,01,19.30
2018,08,20,13,02,19.30
2018,08,20,13,03,19.30
2018,08,20,13,04,19.30
2018,08,20,13,05,19.20
2018,08,20,13,06,19.20
2018,08,20,13,07,19.10
2018,08,20,13,08,18.90
2018,08,20,13,09,18.60
2018,08,20,13,10,18.40
2018,08,20,13,11,18.10
2018,08,20,13,12,17.80
2018,08,20,13,13,17.60
2018,08,20,13,14,17.50
2018,08,20,13,15,17.40
2018,08,20,13,16,17.40
2018,08,20,13,17,17.50
2018,08,20,13,18,17.50
2018,08,20,13,19,17.40
2018,08,20,13,20,17.40
2018,08,20,13,21,17.30
2018,08,20,13,22,17.20
2018,08,20,13,23,17.10
2018,08,20,13,24,17.10
2018,08,20,13,25,17.00
2018,08,20,13,26,17.00
2018,08,20,13,27,17.10
2018,08,20,13,28,17.10
2018,08,20,13,29,17.20
2018,08,20,13,30,17.20
2018,08,20,13,31,17.20
2018,08,20,13,32,17.30
2018,08,20,13,33,17.30
2018,08,20,13,34,17.40
2018,08,20,13,35,17.40
2018,08,20,13,36,17.40
2018,08,20,13,37,17.50
2018,08,20,13,38,17.60
2018,08,20,13,39,17.70
2018,08,20,13,40,17.80
2018,08,20,13,41,17.80
2018,08,20,13,42,17.70
2018,08,20,13,43,17.70
2018,08,20,13,44,17.70
2018,08,20,13,45,17.70
2018,08,20,13,46,17.70
2018,08,20,13,47,17.80
2018,08,20,13,48,17.90
2018,08,20,13,49,18.00
2018,08,20,13,50,18.10
2018,08,20,13,51,18.20
2018,08,20,13,52,18.30
2018,08,20,13,53,18.40
2018,08,20,13,54,18.50
2018,08,20,13,55,18.60
2018,08,20,13,56,18.70
2018,08,20,13,57,18.80
2018,08,20,13,58,18.80
2018,08,20,13,59,18.80
2018,08,20,14,00,18.90
2018,08,20,14,01,19.00
2018,08,20,14,02,19.00
2018,08,20,14,03,19.10
2018,08,20,14,04,19.20
2018,08,20,14,05,19.30
2018,08,20,14,06,19.30
2018,08,20,14,07,19.30
2018,08,20,14,08,19.40
2018,08,20,14,09,19.40
2018,08,20,14,10,19.40
2018,08,20,14,11,19.50
2018,08,20,14,12,19.60
2018,08,20,14,13,19.60
2018,08,20,14,14,19.70
2018,08,20,14,15,19.70
2018,08,20,14,16,19.70
2018,08,20,14,17,19.70
2018,08,20,14,18,19.70
2018,08,20,14,19,19.80
2018,08,20,14,20,19.80
2018,08,20,14,21,19.90
2018,08,20,14,22,19.90
2018,08,20,14,23,19.90
2018,08,20,14,24,19.80
2018,08,20,14,25,19.80
2018,08,20,14,26,19.70
2018,08,20,14,27,19.70
2018,08,20,14,28,19.70
2018,08,20,14,29,19.80
2018,08,20,14,30,19.90
2018,08,20,14,31,19.90
2018,08,20,14,32,20.10
2018,08,20,14,33,20.20
2018,08,20,14,34,20.30
2018,08,20,14,35,20.40
2018,08,20,14,36,20.60
2018,08,20,14,37,20.70
2018,08,20,14,38,20.90
2018,08,20,14,39,21.10
2018,08,20,14,40,21.10
2018,08,20,14,41,21.10
2018,08,20,14,42,21.00
2018,08,20,14,43,21.10
2018,08,20,14,44,21.10
2018,08,20,14,45,21.10
2018,08,20,14,46,21.10
2018,08,20,14,47,21.10
2018,08,20,14,48,21.00
2018,08,20,14,49,21.00
2018,08,20,14,50,20.90
2018,08,20,14,51,20.90
2018,08,20,14,52,20.90
2018,08,20,14,53,20.90
2018,08,20,14,54,21.00
2018,08,20,14,55,21.00
2018,08,20,14,56,21.00
2018,08,20,14,57,21.00
2018,08,20,14,58,21.00
2018,08,20,14,59,21.10
2018,08,20,15,00,21.10
2018,08,20,15,01,21.20
2018,08,20,15,02,21.30
2018,08,20,15,03,21.40
2018,08,20,15,04,21.50
2018,08,20,15,05,21.60
2018,08,20,15,06,21.70
2018,08,20,15,07,21.80
2018,08,20,15,08,21.80
2018,08,20,15,09,21.90
2018,08,20,15,10,21.90
2018,08,20,15,11,21.90
2018,08,20,15,12,21.90
2018,08,20,15,13,21.90
2018,08,20,15,14,21.90
2018,08,20,15,15,22.00
2018,08,20,15,16,22.00
2018,08,20,15,17,22.10
2018,08,20,15,18,22.10
2018,08,20,15,19,22.10
2018,08,20,15,20,22.00
2018,08,20,15,21,22.00
2018,08,20,15,22,21.90
2018,08,20,15,23,22.00
2018,08,20,15,24,22.00
2018,08,20,15,25,22.10
2018,08,20,15,26,22.20
2018,08,20,15,27,22.30
2018,08,20,15,28,22.40
2018,08,20,15,29,22.50
2018,08,20,15,30,22.50
2018,08,20,15,31,22.50
2018,08,20,15,32,22.40
2018,08,20,15,33,22.40
2018,08,20,15,34,22.40
2018,08,20,15,35,22.40
2018,08,20,15,36,22.40
2018,08,20,15,37,22.50
2018,08,20,15,38,22.50
2018,08,20,15,39,22.60
2018,08,20,15,40,22.60
2018,08,20,15,41,22.70
2018,08,20,15,42,22.80
2018,08,20,15,43,22.80
2018,08,20,15,44,22.90
2018,08,20,15,45,23.00
2018,08,20,15,46,23.00
2018,08,20,15,47,23.00
2018,08,20,15,48,23.00
2018,08,20,15,49,23.00
2018,08,20,15,50,23.00
2018,08,20,15,51,23.00
2018,08,20,15,52,22.90
2018,08,20,15,53,22.90
2018,08,20,15,54,22.90
2018,08,20,15,55,22.90
2018,08,20,15,56,22.90
2018,08,20,15,57,22.90
2018,08,20,15,58,22.90
2018,08,20,15,59,23.00
2018,08,20,16,00,23.10
2018,08,20,16,01,23.10
2018,08,20,16,02,23.20
2018,08,20,16,03,23.20
2018,08,20,16,04,23.20
2018,08,20,16,05,23.20
2018,08,20,16,06,23.20
2018,08,20,16,07,23.20
2018,08,20,16,08,23.00
2018,08,20,16,09,22.80
2018,08,20,16,10,22.60
2018,08,20,16,11,22.50
2018,08,20,16,12,22.30
2018,08,20,16,13,22.20
2018,08,20,16,14,22.10
2018,08,20,16,15,21.90
2018,08,20,16,16,21.50
2018,08,20,16,17,21.10
2018,08,20,16,18,20.80
2018,08,20,16,19,20.50
2018,08,20,16,20,20.30
2018,08,20,16,21,20.20
2018,08,20,16,22,20.00
2018,08,20,16,23,20.00
2018,08,20,16,24,19.90
2018,08,20,16,25,19.90
2018,08,20,16,26,19.90
2018,08,20,16,27,19.90
2018,08,20,16,28,19.90
2018,08,20,16,29,19.90
2018,08,20,16,30,20.00
2018,08,20,16,31,20.00
2018,08,20,16,32,20.10
2018,08,20,16,33,20.20
2018,08,20,16,34,20.20
2018,08,20,16,35,20.30
2018,08,20,16,36,20.40
2018,08,20,16,37,20.50
2018,08,20,16,38,20.50
2018,08,20,16,39,20.60
2018,08,20,16,40,20.60
2018,08,20,16,41,20.60
2018,08,20,16,42,20.60
2018,08,20,16,43,20.60
2018,08,20,16,44,20.60
2018,08,20,16,45,20.60
2018,08,20,16,46,20.50
2018,08,20,16,47,20.50
2018,08,20,16,48,20.40
2018,08,20,16,49,20.30
2018,08,20,16,50,20.20
2018,08,20,16,51,20.20
2018,08,20,16,52,20.20
2018,08,20,16,53,20.20
2018,08,20,16,54,20.10
2018,08,20,16,55,20.10
2018,08,20,16,56,19.90
2018,08,20,16,57,19.80
2018,08,20,16,58,19.70
2018,08,20,16,59,19.70
2018,08,20,17,00,19.80
2018,08,20,17,01,19.80
2018,08,20,17,02,19.90
2018,08,20,17,03,19.80
2018,08,20,17,04,19.80
2018,08,20,17,05,19.70
2018,08,20,17,06,19.60
2018,08,20,17,07,19.50
2018,08,20,17,08,19.50
2018,08,20,17,09,19.60
2018,08,20,17,10,19.60
2018,08,20,17,11,19.70
2018,08,20,17,12,19.60
2018,08,20,17,13,19.50
2018,08,20,17,14,19.50
2018,08,20,17,15,19.40
2018,08,20,17,16,19.40
2018,08,20,17,17,19.40
2018,08,20,17,18,19.50
2018,08,20,17,19,19.60
2018,08,20,17,20,19.70
2018,08,20,17,21,19.80
2018,08,20,17,22,19.80
2018,08,20,17,23,19.80
2018,08,20,17,24,19.70
2018,08,20,17,25,19.60
2018,08,20,17,26,19.50
2018,08,20,17,27,19.40
2018,08,20,17,28,19.20
2018,08,20,17,29,19.10
2018,08,20,17,30,18.90
2018,08,20,17,31,18.70
2018,08,20,17,32,18.60
2018,08,20,17,33,18.50
2018,08,20,17,34,18.40
2018,08,20,17,35,18.40